Kailua Kona, HI

3:36 AM HST on February 24, 2017 (GMT -1000)
Kona International At Keahole

Weather History for PHKO - February, 2014

Change the Weather History Date:

Thursday, February 27, 2014

  Actual Average Record
Temperature  
Mean Temperature 74 °F -  
Max Temperature 82 °F 79 °F 87 °F (1983)
Min Temperature 66 °F 66 °F 62 °F (1985)
Cooling Degree Days 9    
Growing Degree Days 24 (Base 50)    
Moisture  
Dew Point 60 °F    
Average Humidity 59    
Maximum Humidity 76    
Minimum Humidity 45    
Precipitation  
Precipitation 0.00 in - - ()
Sea Level Pressure  
Sea Level Pressure 29.95 in    
Wind  
Wind Speed 5 mph (South)    
Max Wind Speed 10 mph    
Max Gust Speed -    
Visibility 10 miles    
Events      
Averages and records for this station are not official NWS values.
T = Trace of Precipitation, MM = Missing Value Source: NWS Daily Summary

Daily Weather History Graph

Daily Weather History Graph

Search for Another Location

Airport or City:

Trip Planner

Search our weather history database for the weather conditions in past years. The results will help you decide how hot, cold, wet, or windy it might be!

Date:

Astronomy

Feb. 27, 2014 Rise Set
Actual Time 6:45 AM HST 6:28 PM HST
Civil Twilight 6:23 AM HST 6:50 PM HST
Nautical Twilight 5:57 AM HST 7:16 PM HST
Astronomical Twilight 5:31 AM HST 7:42 PM HST
Moon 5:17 AM HST (2/27) 5:12 PM HST (2/27)
Length of Visible Light 12h 27m
Length of Day
11h 43m
Waning Crescent, 3% of the Moon is Illuminated
Feb 27
Waning Crescent
Feb 28
New
Mar 8
First Quarter
Mar 16
Full
Mar 23
Last Quarter

Hourly Weather History & Observations

Time (HST) Temp. Heat Index Dew Point Humidity Pressure Visibility Wind Dir Wind Speed Gust Speed Precip Events Conditions
12:53 AM 69.1 °F - 57.9 °F 68% 29.97 in 10.0 mi Calm Calm - N/A   Clear
1:53 AM 70.0 °F - 59.0 °F 68% 29.96 in 10.0 mi ESE 5.8 mph - N/A   Clear
2:53 AM 71.1 °F - 59.0 °F 66% 29.94 in 10.0 mi East 3.5 mph - N/A   Clear
3:53 AM 68.0 °F - 60.1 °F 76% 29.93 in 10.0 mi ENE 5.8 mph - N/A   Clear
4:53 AM 68.0 °F - 59.0 °F 73% 29.93 in 10.0 mi NE 4.6 mph - N/A   Clear
5:53 AM 66.9 °F - 59.0 °F 76% 29.95 in 10.0 mi NE 4.6 mph - N/A   Clear
6:53 AM 66.9 °F - 57.9 °F 73% 29.96 in 10.0 mi NE 6.9 mph - N/A   Clear
7:53 AM 71.1 °F - 57.0 °F 61% 29.98 in 10.0 mi South 3.5 mph - N/A   Clear
8:53 AM 75.0 °F - 61.0 °F 62% 29.99 in 10.0 mi Calm Calm - N/A   Clear
9:53 AM 79.0 °F - 55.9 °F 45% 30.00 in 10.0 mi WSW 5.8 mph - N/A   Clear
10:53 AM 81.0 °F 81.1 °F 57.9 °F 45% 29.99 in 10.0 mi SSW 10.4 mph - N/A   Clear
11:53 AM 80.1 °F 81.1 °F 61.0 °F 52% 29.99 in 10.0 mi SW 9.2 mph - N/A   Clear
12:53 PM 82.0 °F 82.7 °F 61.0 °F 49% 29.96 in 10.0 mi SW 9.2 mph - N/A   Clear
1:53 PM 82.0 °F 83.0 °F 62.1 °F 51% 29.93 in 10.0 mi WSW 10.4 mph - N/A   Clear
2:53 PM 81.0 °F 81.9 °F 62.1 °F 52% 29.91 in 10.0 mi WSW 8.1 mph - N/A   Clear
3:53 PM 81.0 °F 81.9 °F 62.1 °F 52% 29.91 in 10.0 mi WNW 6.9 mph - N/A   Clear
4:53 PM 80.1 °F 81.1 °F 61.0 °F 52% 29.91 in 10.0 mi NW 8.1 mph - N/A   Clear
5:53 PM 80.1 °F 80.9 °F 60.1 °F 50% 29.91 in 10.0 mi NW 5.8 mph - N/A   Clear
6:53 PM 78.1 °F - 59.0 °F 52% 29.93 in 10.0 mi WNW 3.5 mph - N/A   Clear
7:53 PM 78.1 °F - 60.1 °F 54% 29.95 in 10.0 mi SW 3.5 mph - N/A   Clear
8:53 PM 75.9 °F - 61.0 °F 60% 29.97 in 10.0 mi ESE 5.8 mph - N/A   Clear
9:53 PM 75.0 °F - 61.0 °F 62% 29.98 in 10.0 mi SE 6.9 mph - N/A   Clear
10:53 PM 73.9 °F - 61.0 °F 64% 29.99 in 10.0 mi ESE 8.1 mph - N/A   Clear
11:53 PM 73.9 °F - 61.0 °F 64% 29.96 in 10.0 mi ESE 8.1 mph - N/A   Clear